Location: ??
(35.1714°N, 128.2806°E)
Time: 14:48:07
(UTC+00:00)

Cosmos 1300 - Pass Details

Date: 29 October 2020
Orbit: 511 x 513 km, 82.5° (Epoch: 30 November)

Event Time Altitude Azimuth Distance (km) Brightness Sun altitude
Exits shadow 20:41:31 - 336° (NNW) 2,032 5.4 -13.8°
Reaches altitude 10° 20:42:18 10° 331° (NNW) 1,740 5.0 -13.6°
Maximum altitude 20:45:40 31° 269° (W) 925 3.4 -12.9°
Drops below altitude 10° 20:49:02 10° 206° (SSW) 1,727 5.2 -12.2°
Sets 20:51:18 0° 196° (SSW) 2,607 6.2 -11.8°
